Theta_e
337 336 337 336 337 335 332 330 328 324 320 319 315 314 313 313 314 312 313 319 322 325 326 328 329 328 328 327 328 330 333 335 335 336 335 336 336 335 334 333 333 332 330 332 336 338 336 333 330 331 333 333 333 330 329 328 327 325 322 321 322 325 327 327 328 328 327 327 328 328 328 328 328 328 327 327 327 327 326 326 326 326 327 327 327
339 337 337 337 337 337 335 335 334 329 322 319 318 317 318 322 323 320 322 327 329 329 329 330 330 330 328 327 329 332 334 335 335 336 335 335 337 336 334 333 333 331 330 333 336 338 335 332 331 332 333 333 333 331 330 328 325 323 322 323 326 327 327 327 327 327 326 326 326 327 327 327 327 326 326 326 326 326 326 326 326 326 326 326 327
340 338 338 338 337 338 337 337 338 335 324 319 324 325 325 330 330 327 328 330 330 329 330 330 330 331 328 327 331 333 335 335 334 335 335 335 337 337 335 333 332 331 331 334 337 336 333 332 331 332 333 332 332 331 330 327 323 322 322 324 326 326 326 325 325 325 325 325 325 325 326 326 325 325 325 325 325 325 324 325 325 325 325 325 325
341 339 338 338 338 337 338 338 339 338 329 326 333 334 331 331 332 332 331 330 330 331 331 331 331 331 328 329 332 334 335 335 334 335 335 335 337 337 334 333 332 332 333 335 336 334 333 332 331 332 332 332 331 331 328 324 324 325 323 324 325 323 323 324 323 324 324 324 324 324 325 325 324 323 323 324 323 323 322 322 322 322 322 322 322
341 341 339 339 338 337 338 338 338 339 335 335 338 337 335 333 331 332 332 331 331 331 331 331 331 330 329 331 334 335 335 334 334 335 335 335 337 337 334 332 332 332 334 336 335 334 333 332 332 331 332 331 331 329 325 323 325 326 324 325 324 322 323 323 322 322 321 322 323 324 324 323 321 320 322 323 321 321 321 320 321 321 321 321 321
341 342 341 339 339 338 338 339 339 339 338 338 339 339 338 335 332 332 334 333 331 331 331 331 332 331 332 334 335 335 334 334 334 335 335 336 337 336 333 332 333 333 336 336 334 333 332 332 332 331 331 330 329 326 323 324 326 326 324 324 323 322 323 322 320 319 318 319 320 321 321 320 319 320 321 321 319 319 318 318 319 320 320 320 320
342 343 342 340 339 338 338 339 339 339 339 339 340 339 337 336 334 335 335 333 331 331 332 332 332 331 334 335 335 335 334 334 335 335 335 336 337 335 333 333 333 334 336 336 334 333 332 332 332 331 330 329 328 325 323 325 326 326 324 323 322 322 321 319 318 317 317 318 318 319 319 319 320 320 320 319 318 317 317 317 317 318 318 318 318
342 343 342 341 340 339 338 339 340 340 339 339 340 339 338 338 338 337 336 336 335 334 334 333 331 332 335 336 336 336 335 335 336 335 335 336 336 334 333 334 334 335 335 335 334 333 332 332 330 329 328 327 325 324 323 325 326 326 324 322 322 321 319 318 318 317 317 318 318 319 320 320 320 320 319 319 319 318 317 317 317 317 316 317 317
342 342 343 343 341 340 338 339 340 340 339 339 340 340 339 339 339 339 338 337 338 336 335 334 332 332 335 337 337 337 336 336 336 336 335 336 336 335 334 335 335 335 335 335 334 333 332 331 329 328 327 325 322 319 321 325 326 326 323 322 321 319 319 318 317 317 316 317 318 319 319 319 319 319 318 318 318 317 317 317 316 316 315 316 316
342 343 344 343 342 341 339 339 339 339 339 339 339 339 339 339 339 339 339 338 337 337 336 335 333 331 334 337 338 338 337 336 336 335 335 335 336 336 335 335 336 335 335 335 334 333 332 331 330 328 325 323 319 318 322 326 326 326 323 321 321 320 319 318 317 317 317 317 318 318 318 318 318 317 316 316 316 316 316 316 314 314 314 314 314
342 343 344 343 342 341 340 338 339 339 339 339 338 338 338 338 339 339 339 338 337 337 337 335 334 333 335 338 338 338 336 336 335 335 335 336 336 336 336 336 336 335 336 335 334 333 332 332 330 326 323 321 319 320 324 326 326 325 322 322 321 319 318 317 316 316 315 316 317 317 317 317 317 316 316 315 314 315 315 315 313 313 314 313 313
341 342 343 343 342 341 340 339 339 339 339 338 338 337 337 338 338 338 338 338 338 337 337 336 335 336 337 339 339 337 336 335 336 336 336 336 336 337 337 337 336 336 336 335 335 333 332 332 329 326 323 322 320 320 322 325 326 324 323 322 320 318 317 316 316 315 315 315 315 315 315 315 315 315 315 315 314 314 314 314 314 313 313 313 313
340 342 343 343 342 340 339 339 339 339 338 338 338 337 337 338 338 339 339 339 338 337 337 335 336 339 339 339 338 337 337 337 336 335 335 336 336 337 337 337 337 336 336 336 334 332 331 331 328 325 323 323 321 320 322 325 325 324 323 321 319 318 317 316 315 315 314 314 314 315 314 314 314 314 314 314 314 314 314 314 313 313 313 313 312
340 341 342 343 342 341 338 337 338 338 338 338 338 338 338 339 339 340 340 340 338 337 337 336 338 340 339 339 340 339 337 337 336 336 335 336 336 337 337 337 337 336 336 336 334 332 331 330 327 324 323 323 321 320 322 324 324 324 323 321 319 318 318 316 316 314 314 313 313 314 314 313 313 313 314 313 313 314 313 313 313 313 313 313 312
340 341 342 342 342 341 337 336 337 338 338 337 337 338 338 339 339 340 340 339 338 338 337 336 337 340 339 341 343 341 340 338 336 337 336 336 337 337 337 337 337 336 336 336 334 332 331 329 327 325 324 323 322 321 321 322 323 324 323 320 319 319 318 318 316 315 313 312 312 313 313 312 312 312 312 312 312 312 312 313 312 312 312 312 312
341 341 341 340 340 340 337 335 336 337 337 337 336 337 337 338 339 339 339 339 339 338 338 336 336 339 340 340 339 340 345 342 336 336 336 335 336 336 337 337 337 336 335 335 335 332 331 329 327 325 324 323 322 321 321 321 322 323 322 320 318 319 319 318 317 315 314 312 312 312 312 312 311 311 311 311 311 311 311 311 311 311 311 311 311
342 341 340 339 339 338 336 335 335 335 336 336 336 336 336 337 337 338 338 339 339 338 338 337 336 337 338 339 338 340 348 343 335 337 336 336 337 336 337 337 336 336 335 335 335 333 331 330 327 325 323 322 322 321 321 320 321 321 321 319 319 319 319 318 317 316 314 313 312 311 311 311 310 310 310 310 310 310 310 310 310 310 310 311 310
341 340 339 337 337 337 336 335 335 335 335 336 337 338 338 337 337 338 338 340 340 339 338 337 338 337 337 338 339 341 344 339 337 340 337 335 337 336 336 336 335 335 335 335 334 333 332 331 329 325 323 322 321 321 321 320 319 319 319 319 319 319 318 318 318 316 315 314 313 311 311 310 310 310 309 309 309 309 309 309 309 309 310 310 310
340 340 338 337 337 336 335 335 334 334 335 337 338 339 339 337 336 336 337 338 339 339 338 337 338 338 337 337 337 338 337 337 340 342 341 337 336 336 337 335 334 334 334 334 334 334 333 332 330 327 324 323 322 321 321 319 319 318 317 318 319 318 318 318 317 317 315 314 313 312 311 310 310 309 309 309 308 308 308 308 309 309 309 309 309
340 340 339 337 337 336 336 335 334 333 334 337 339 339 338 337 336 337 337 337 338 339 338 338 338 338 339 338 339 339 337 336 337 339 341 339 335 334 334 333 332 332 332 334 333 333 333 332 331 328 325 324 322 322 321 319 319 317 316 317 318 318 317 317 317 316 315 315 314 312 311 310 310 309 309 308 308 308 307 307 308 308 308 308 309
340 340 339 338 337 336 336 335 334 334 335 338 339 339 338 337 337 338 337 337 337 338 338 338 338 338 340 340 340 340 337 336 336 335 336 335 335 334 331 331 332 331 331 332 332 331 330 330 329 327 325 324 322 322 320 320 318 314 312 314 316 317 317 317 316 315 314 314 314 312 311 310 310 309 309 308 307 307 307 307 307 307 308 308 308
340 340 339 338 337 336 336 335 335 335 335 337 339 339 338 337 338 339 338 338 338 338 338 338 338 338 338 339 339 339 337 336 336 336 333 330 332 333 329 329 331 331 331 331 329 328 328 328 327 326 325 323 322 321 320 319 317 313 311 311 313 314 316 316 315 314 314 313 313 312 312 311 310 309 308 308 307 306 306 307 306 306 307 307 308
340 339 339 338 337 336 336 336 336 335 335 337 339 340 339 338 338 339 339 339 339 339 338 338 338 337 338 338 338 338 337 337 336 335 333 330 332 331 328 328 329 329 330 330 329 327 327 327 327 326 325 323 322 321 320 319 317 313 310 309 311 312 314 315 315 314 314 313 312 312 311 311 310 309 308 308 307 306 305 305 306 306 306 307 308
340 339 339 338 337 336 337 337 337 336 336 336 338 340 340 338 338 339 340 340 340 339 338 338 338 337 337 338 338 338 338 338 337 336 334 331 330 328 326 328 329 328 329 330 329 327 327 328 327 326 324 323 323 322 320 319 317 315 311 309 310 310 310 312 313 313 312 312 311 311 311 311 310 309 309 308 308 307 304 302 303 305 305 306 307
340 339 338 337 336 336 336 337 337 337 337 336 338 340 341 340 339 339 339 340 340 339 339 339 338 337 337 337 338 338 338 337 338 337 334 331 329 327 326 328 329 328 328 329 329 328 327 328 328 326 324 323 323 321 320 318 318 315 311 311 310 308 307 307 307 308 309 310 309 308 308 308 307 309 309 308 308 308 304 299 300 302 302 304 306
339 339 338 337 336 335 336 337 337 338 338 337 337 339 341 342 340 340 339 339 340 340 339 339 338 338 338 338 338 338 338 338 338 338 335 332 330 329 327 328 328 327 328 330 329 328 328 328 327 326 325 324 323 321 320 319 318 315 312 312 311 307 304 303 303 303 305 306 305 303 303 302 302 306 309 309 308 308 306 300 298 299 299 299 301
339 339 338 337 336 336 337 337 338 339 339 338 337 339 341 342 341 341 340 340 340 340 339 339 339 338 338 338 338 338 338 338 338 338 336 334 332 330 328 328 330 328 327 329 329 328 328 328 328 326 325 324 322 322 321 320 318 314 312 313 311 308 305 304 305 305 303 303 303 302 303 303 302 303 308 309 308 308 307 304 299 296 296 295 294
339 339 339 337 337 337 338 338 339 339 339 339 338 339 341 342 342 341 341 341 340 340 340 339 339 339 338 338 338 338 338 338 337 336 335 334 332 331 329 328 331 331 329 329 329 328 329 329 327 326 325 324 322 321 321 319 317 314 314 314 312 310 308 309 310 308 305 304 304 305 305 306 304 304 307 309 309 309 307 307 304 296 294 294 293
339 339 338 337 337 338 339 339 339 340 340 340 340 340 341 343 342 341 341 341 340 340 339 339 339 339 338 338 338 338 338 337 337 335 332 332 332 330 329 328 330 333 331 330 329 328 329 329 328 326 325 324 322 321 320 319 316 315 315 315 313 312 311 312 312 310 307 306 306 307 306 306 306 305 306 308 310 310 307 307 306 297 294 295 294
339 338 338 337 337 338 339 339 340 341 341 341 341 341 342 343 342 341 341 340 340 339 339 339 339 339 339 339 338 338 338 338 338 335 331 330 330 330 330 329 328 330 330 330 330 328 328 329 329 327 325 324 322 321 320 318 316 315 316 315 314 313 312 313 312 311 309 307 308 308 307 307 307 307 308 308 309 310 308 307 305 298 294 295 294
339 338 338 338 338 338 339 339 340 340 342 342 342 342 343 343 343 341 341 340 340 339 339 338 339 339 339 339 338 338 338 337 337 336 333 332 332 331 330 329 328 328 327 328 331 330 328 327 328 327 327 325 323 321 319 317 316 316 317 316 315 314 313 313 312 311 309 309 309 309 308 307 307 308 309 309 309 308 308 307 305 299 295 295 295
339 339 339 338 338 339 339 339 339 340 342 343 343 343 344 343 342 342 341 341 340 340 339 339 339 339 338 338 338 337 337 337 337 336 334 333 332 331 330 329 328 328 327 327 330 330 327 326 327 326 326 326 323 321 319 316 316 317 316 315 315 314 313 313 313 312 310 309 309 309 309 308 307 307 307 308 308 308 308 307 306 301 296 295 295
339 339 339 339 339 339 339 339 339 339 341 343 344 344 344 343 342 342 341 341 341 341 340 340 339 339 338 337 337 336 335 336 335 335 334 332 331 330 330 329 328 328 328 328 328 327 325 325 325 324 325 326 322 320 319 317 316 317 316 314 314 314 314 313 313 312 311 310 309 309 310 309 308 307 306 306 306 308 309 308 306 302 296 295 296
340 339 340 339 339 339 339 339 339 338 339 342 344 344 343 343 342 342 342 342 341 340 340 340 339 338 337 337 337 336 335 334 334 333 333 333 331 330 330 329 328 329 328 328 327 325 323 323 323 323 323 324 322 319 318 318 318 317 316 314 314 315 314 313 313 313 311 310 310 310 310 310 308 307 306 305 304 305 308 307 305 301 297 295 296
340 340 340 340 339 339 339 339 340 340 341 343 345 344 343 343 342 342 342 341 341 340 339 339 338 338 338 337 337 336 334 334 333 333 333 333 332 331 330 329 328 328 328 327 326 324 322 321 321 322 321 322 322 320 318 318 319 318 316 315 315 315 314 313 313 313 312 311 310 310 310 309 308 306 305 303 301 302 304 304 303 300 296 295 296
340 340 340 340 340 341 341 341 342 342 343 344 344 344 343 342 342 342 341 340 339 339 338 338 338 338 338 337 336 335 333 333 332 332 332 332 331 330 329 328 328 327 327 327 327 325 323 320 320 322 322 321 321 321 319 318 318 317 316 316 316 315 314 314 313 313 312 311 311 311 310 308 307 306 304 301 300 301 301 302 301 298 296 296 296
341 341 341 341 342 342 342 343 344 344 344 345 344 343 342 342 341 340 340 339 338 338 339 339 339 338 337 336 336 334 333 332 331 331 331 330 330 329 328 327 327 327 327 327 327 326 324 321 320 321 320 320 321 320 318 318 318 316 316 316 316 315 314 314 313 313 312 311 311 310 309 307 307 305 302 298 299 301 301 300 300 298 296 296 296
341 342 343 344 344 343 344 344 345 345 344 344 343 342 342 340 340 339 338 338 339 339 339 338 338 338 337 336 335 334 333 332 331 331 330 328 328 327 326 326 326 326 326 325 325 326 324 321 321 320 319 319 320 319 319 319 318 316 315 315 316 315 314 314 313 313 312 311 311 310 308 308 306 302 298 297 298 300 300 300 299 297 296 296 296
343 344 344 345 345 344 345 345 345 345 344 343 343 342 341 340 339 339 339 339 339 339 338 338 337 337 336 335 334 333 332 331 330 330 328 327 326 325 324 325 325 325 325 324 324 325 323 320 320 320 319 319 320 319 319 319 318 317 316 315 315 314 314 314 314 313 312 311 311 309 308 308 306 302 299 298 298 299 299 298 298 297 297 297 296
344 345 345 345 345 345 345 345 345 344 343 343 342 341 340 340 340 340 340 340 339 337 337 337 336 336 335 333 333 332 331 330 329 328 326 325 324 323 323 324 325 324 324 324 324 323 321 320 320 320 319 319 319 319 319 317 316 316 316 315 315 314 314 314 314 313 312 311 310 309 308 308 306 304 303 301 299 299 298 297 297 297 297 297 297
344 345 345 345 345 346 345 344 343 343 343 342 341 340 340 340 340 340 340 339 338 337 336 335 334 334 333 332 331 331 330 329 327 326 325 323 322 322 322 322 323 323 323 323 322 321 320 320 320 319 319 319 319 318 318 317 317 316 316 316 315 314 314 314 313 312 311 311 310 309 308 309 308 305 305 304 302 301 299 297 296 297 297 297 297
345 346 345 345 345 345 344 342 340 342 342 341 341 341 340 341 340 339 339 337 337 336 335 333 332 332 331 331 330 329 329 327 326 326 325 322 320 320 320 319 320 320 320 320 320 320 320 320 320 319 318 318 318 319 318 318 318 317 316 315 314 313 313 312 311 311 311 311 310 309 309 309 309 307 306 305 304 303 302 299 297 297 297 297 297
346 343 342 343 343 340 338 339 341 341 341 341 341 341 340 340 339 338 337 336 335 335 334 333 332 330 329 329 329 328 327 326 325 325 323 321 320 319 319 318 317 317 318 318 318 318 319 320 320 320 319 318 318 318 318 318 318 316 316 315 314 313 312 311 311 311 311 311 310 310 309 308 309 308 307 306 305 305 304 303 300 298 298 298 298
343 340 341 343 342 337 334 339 342 341 340 340 340 340 339 339 339 338 336 336 334 333 332 331 331 330 329 328 327 326 326 325 324 323 321 320 319 319 318 317 316 316 317 317 318 318 319 319 319 320 319 318 317 316 316 317 316 315 314 314 313 313 312 311 311 311 311 311 310 309 308 308 308 308 307 306 306 305 305 304 303 301 300 299 298
341 341 342 340 339 338 337 339 341 339 339 340 339 339 339 338 338 337 336 334 332 331 330 329 329 329 328 327 325 324 323 323 322 321 320 319 318 318 317 315 314 316 317 317 317 318 318 319 319 319 318 317 317 316 316 315 315 314 313 313 312 312 312 311 309 309 309 310 309 307 306 306 305 304 304 304 304 305 305 305 305 304 302 301 299
341 342 340 337 338 341 340 340 340 339 339 339 338 339 338 337 337 335 334 333 331 329 329 328 327 327 326 325 324 323 321 321 320 320 319 319 318 317 316 315 314 314 315 317 317 317 317 317 317 318 317 316 316 317 316 316 315 314 313 312 312 311 311 309 307 307 306 307 307 305 303 302 301 301 302 302 303 303 303 304 304 304 304 303 300
341 339 336 335 338 340 340 340 340 339 339 339 337 337 336 335 334 333 332 331 329 328 327 327 327 326 325 324 323 322 320 320 319 319 318 318 318 317 315 314 314 313 313 315 316 316 316 316 315 314 314 313 314 316 316 316 315 314 313 313 311 310 308 306 304 305 305 305 305 303 301 300 300 300 301 301 301 301 301 302 302 303 303 303 301
339 337 336 337 337 337 339 341 340 339 339 337 336 335 334 333 332 331 330 329 328 327 327 326 326 325 323 322 322 321 320 319 318 318 318 318 317 316 315 313 313 312 312 313 314 314 314 313 312 312 311 311 312 312 313 314 313 312 312 311 309 308 305 303 302 303 303 303 303 303 301 300 300 300 300 299 299 299 300 300 301 301 302 302 301
339 337 338 338 337 338 339 339 339 339 338 336 335 333 332 331 330 329 329 328 327 327 326 326 325 323 321 321 321 320 320 319 319 318 317 317 316 315 314 313 312 312 311 311 311 311 311 311 311 310 310 310 310 309 310 311 311 311 310 308 307 306 304 301 300 302 302 302 302 302 301 301 300 299 299 299 299 299 299 300 300 300 300 300 300
338 336 338 338 337 338 339 339 339 339 337 335 334 332 330 330 329 328 328 328 327 326 325 325 324 322 320 320 319 319 319 318 318 317 316 316 315 314 314 313 312 311 310 310 310 309 309 309 309 309 309 309 309 308 308 308 309 309 309 308 305 304 303 300 299 300 301 301 301 301 301 300 300 299 299 299 299 299 299 300 299 300 300 299 298
336 335 337 337 337 338 338 338 338 338 336 334 333 331 329 329 328 327 327 328 327 326 325 324 323 322 321 320 320 319 318 317 317 316 315 315 314 314 314 313 312 311 309 309 309 308 308 308 307 307 307 306 306 306 305 306 307 308 308 307 305 304 302 300 300 300 300 300 301 301 300 300 299 299 299 299 298 296 297 298 298 298 298 298 296
Wind_Speed
26 24 22 21 18 15 14 13 13 13 14 14 13 12 12 11 11 10 11 10 9 9 9 10 12 14 17 16 11 11 11 11 11 11 10 9 7 5 4 3 5 9 11 10 7 6 5 5 5 5 6 6 5 5 5 4 4 4 5 5 6 6 6 6 5 5 5 6 6 6 6 7 7 7 7 7 6 6 7 6 6 6 6 6 6
26 24 23 21 19 17 15 13 11 12 14 14 13 12 12 11 10 10 10 9 9 9 9 12 14 16 16 12 10 12 11 10 11 11 10 8 7 6 4 3 6 10 11 9 8 7 6 5 5 6 6 5 5 5 4 3 4 4 5 6 5 5 5 5 5 5 5 5 6 6 6 6 6 6 6 6 5 5 5 5 4 4 4 4 4
27 25 24 21 20 19 17 15 12 11 14 15 13 12 11 10 9 8 9 8 8 9 11 14 15 15 11 9 12 13 12 10 10 10 9 8 8 7 5 5 8 11 11 9 9 8 6 6 6 6 6 5 4 4 3 3 4 4 6 6 3 3 3 4 4 4 4 5 6 5 5 5 5 5 4 4 4 4 4 4 4 4 3 3 3
28 27 25 22 22 20 18 16 14 12 12 14 13 12 12 11 9 8 8 8 9 10 12 13 13 13 8 11 13 13 11 10 10 9 7 8 8 7 6 7 10 11 10 10 9 8 7 6 6 7 6 5 4 3 2 3 4 4 6 5 3 3 3 4 4 5 5 5 5 5 4 4 4 5 4 3 3 3 3 3 3 4 4 4 4
30 28 26 23 22 21 19 18 15 13 12 12 12 12 13 13 12 11 11 10 11 12 12 12 12 10 8 14 13 12 10 10 10 8 6 8 9 8 7 9 11 12 11 9 9 8 7 6 6 6 6 4 3 2 2 4 4 4 5 4 3 4 4 4 5 5 5 5 5 4 3 3 5 5 3 3 4 4 5 5 5 5 5 5 5
30 28 27 25 23 22 21 18 16 15 13 13 12 12 14 15 14 13 14 14 13 13 13 13 11 7 11 15 12 12 11 10 9 7 6 8 10 9 8 10 11 12 11 10 9 8 7 7 6 6 6 5 3 2 2 4 4 2 3 3 3 4 4 4 5 6 6 5 4 3 3 4 4 4 4 4 7 7 6 5 5 5 5 4 4
30 28 27 26 25 23 22 19 16 17 15 14 13 12 12 13 13 12 15 15 14 14 13 12 10 5 13 15 12 12 11 10 9 7 7 9 10 9 9 10 11 12 12 11 10 8 7 7 7 6 6 5 3 2 3 5 4 2 2 1 3 4 4 6 7 8 7 6 5 4 4 5 5 6 6 6 8 8 8 8 8 7 6 5 5
31 28 27 26 25 23 23 20 17 18 17 16 15 14 13 12 11 10 12 12 12 13 13 12 10 5 13 14 12 12 11 11 10 8 8 9 10 10 10 11 11 13 13 12 10 8 7 6 7 6 6 4 3 2 3 5 4 2 2 1 3 4 5 7 8 9 8 6 6 6 7 7 8 7 7 7 9 10 9 10 10 9 8 8 8
31 28 26 26 25 22 22 21 18 18 19 18 17 17 15 14 13 11 12 11 9 11 13 14 12 6 11 14 12 12 11 11 10 9 9 10 10 10 10 11 12 13 13 12 11 9 7 7 6 6 5 4 3 3 4 5 4 4 2 2 4 4 6 7 8 7 7 7 7 8 8 8 8 7 8 9 10 9 8 8 9 8 8 8 9
32 29 25 25 26 22 21 22 19 19 20 19 18 18 17 16 16 13 13 13 10 10 12 14 12 7 9 15 13 11 10 10 11 10 9 10 11 11 11 12 13 14 13 12 11 10 8 8 7 6 5 5 4 4 6 6 5 4 2 3 5 6 6 6 7 8 7 7 8 8 8 8 8 7 8 9 9 8 8 8 7 7 8 8 10
32 30 25 24 25 23 21 21 20 20 21 20 19 18 17 16 16 15 14 15 13 12 12 12 10 8 9 15 13 10 10 9 9 9 8 10 11 12 12 12 13 14 13 12 11 10 9 8 7 7 7 6 5 6 7 6 5 4 3 5 5 5 6 7 8 8 7 7 8 9 9 9 9 8 8 8 9 8 8 8 8 8 9 9 10
32 31 27 25 24 22 20 20 20 20 21 21 20 18 16 15 16 16 14 15 16 16 14 10 6 4 8 14 10 8 8 7 6 6 8 10 12 13 14 14 14 14 13 12 11 10 9 8 8 8 7 7 6 6 6 7 6 4 5 6 5 6 8 9 10 9 8 8 8 8 8 8 8 8 9 9 9 8 8 9 9 9 10 10 9
32 31 29 27 24 21 19 17 18 20 20 21 20 18 16 15 15 15 14 14 17 17 15 10 5 5 8 9 8 8 6 5 4 5 8 12 14 15 15 15 15 15 14 13 12 11 10 10 10 10 8 7 7 6 7 8 7 6 6 5 5 7 8 9 10 10 9 9 8 8 8 9 8 8 9 9 9 9 9 9 9 9 10 9 9
33 31 31 29 26 23 20 17 17 19 19 18 17 16 15 14 15 14 13 13 15 15 15 10 7 8 8 5 4 5 6 5 3 4 8 12 15 16 17 16 16 16 14 14 13 11 11 12 12 11 9 8 7 7 8 8 8 8 7 5 5 7 8 10 11 10 9 9 8 9 10 10 10 9 9 10 10 10 9 9 9 9 9 10 10
34 32 31 29 27 26 22 19 18 19 18 17 15 15 15 15 15 15 14 13 13 14 15 14 9 8 6 3 2 2 3 4 3 4 8 13 16 18 18 18 17 16 15 15 15 13 13 14 13 12 11 9 8 7 7 8 9 9 8 4 5 7 8 10 10 10 9 9 8 9 10 10 9 10 10 9 9 9 9 10 9 9 9 9 9
34 32 31 28 28 27 24 21 20 20 19 18 16 16 16 17 16 16 15 14 14 14 15 16 13 9 5 1 1 2 1 5 5 4 7 13 18 20 20 20 19 17 17 16 16 15 15 15 15 13 12 11 9 8 7 8 9 9 8 5 5 7 7 7 9 10 10 9 9 9 9 10 10 10 10 10 9 9 9 9 9 9 9 9 9
34 32 29 27 28 28 26 23 21 21 20 19 18 16 17 19 18 17 17 15 14 15 15 16 16 13 10 4 2 1 2 4 5 3 7 13 19 21 21 21 20 18 18 17 18 18 16 17 17 15 14 13 11 10 8 7 8 8 8 7 6 7 6 6 8 10 10 10 10 9 9 9 9 10 10 10 10 10 10 9 9 9 9 9 9
33 31 28 26 27 28 28 25 23 23 22 20 18 17 19 22 20 19 19 16 15 16 15 16 16 16 16 13 9 7 4 4 4 2 5 9 14 20 22 22 21 19 19 19 19 19 18 18 18 17 16 14 13 11 9 7 7 8 8 8 8 8 7 6 8 9 9 9 9 9 8 8 9 10 10 10 10 10 10 10 10 9 9 9 9
32 31 29 27 26 27 27 26 24 24 23 21 18 19 22 22 19 18 19 17 16 18 17 16 16 15 16 18 16 13 9 7 5 3 3 4 10 18 21 20 19 19 20 20 19 19 20 20 20 20 18 16 15 12 9 8 8 8 9 10 10 9 8 7 8 9 7 8 8 9 8 8 8 9 9 10 10 10 10 10 10 10 9 9 9
33 32 30 28 27 26 25 24 23 23 23 20 18 20 23 21 18 17 18 18 18 19 19 18 16 14 13 15 14 11 11 11 10 7 4 1 4 9 13 13 14 17 19 19 19 19 21 22 22 22 21 19 16 12 9 8 8 9 9 10 11 11 10 9 8 7 6 7 9 9 8 8 8 8 8 9 10 10 10 10 10 10 10 9 10
34 33 31 29 26 25 24 23 21 22 22 19 17 21 23 20 17 18 19 19 19 20 21 21 20 17 13 14 13 11 11 10 10 9 4 3 2 3 5 7 10 16 20 18 18 19 21 21 22 23 23 21 18 14 10 9 9 9 9 10 11 11 11 10 9 7 6 6 7 7 7 7 7 7 7 8 9 10 10 10 10 10 10 10 10
35 33 31 28 25 23 22 22 21 21 22 19 17 20 23 19 17 18 18 18 19 21 22 23 23 21 19 17 16 14 12 8 9 10 3 4 5 4 6 8 7 12 17 17 18 20 21 21 21 23 23 22 19 15 13 10 9 9 9 9 10 11 12 12 11 10 9 7 5 5 5 6 6 6 7 7 8 9 10 10 10 10 10 10 10
35 33 31 28 24 23 22 22 21 21 23 21 18 19 22 20 17 17 18 19 20 21 21 21 22 23 23 22 21 19 16 13 14 15 9 6 6 4 7 12 11 13 14 14 20 23 22 21 21 22 23 22 19 16 14 12 10 9 9 9 9 10 12 13 13 12 10 8 6 5 5 5 5 5 6 7 7 8 9 9 10 10 10 10 11
34 33 31 27 24 23 23 23 22 22 23 23 19 17 18 20 19 19 19 20 19 19 19 18 20 22 23 23 24 23 23 21 20 20 18 16 10 4 8 13 11 13 14 12 18 23 23 23 22 22 22 21 20 17 15 14 12 10 9 8 8 8 10 11 12 11 11 9 7 6 6 6 5 5 5 5 5 6 8 8 9 10 10 10 11
34 33 31 28 24 24 24 24 23 21 21 22 21 17 16 19 20 21 23 22 18 16 17 17 17 19 20 21 22 23 23 23 22 20 16 12 10 6 10 13 8 9 14 14 15 19 24 25 22 22 23 21 20 18 17 16 13 11 10 9 7 6 7 9 9 8 9 10 8 7 7 7 6 6 5 4 4 4 7 8 8 9 10 10 11
34 33 31 27 25 24 24 23 22 20 19 21 22 19 16 18 20 21 23 23 21 18 17 16 16 17 18 18 20 21 22 22 22 20 15 11 11 8 6 6 4 6 10 13 14 15 20 24 23 23 22 22 22 20 18 17 14 12 11 9 7 6 6 7 6 5 6 7 7 7 6 5 6 8 7 4 4 3 5 7 8 8 8 8 9
33 32 30 28 26 26 25 23 21 20 20 20 21 21 18 17 20 21 20 20 20 20 18 17 18 19 19 19 19 21 21 21 21 21 19 16 15 13 8 4 1 2 5 9 12 15 18 20 20 22 22 22 23 21 19 18 15 13 12 9 7 7 8 8 7 6 5 5 5 4 4 4 4 7 6 4 4 3 3 5 6 6 7 7 7
33 31 30 29 28 28 26 23 22 22 22 21 21 21 21 20 22 22 20 19 19 19 19 19 20 20 20 19 20 21 21 21 22 20 20 18 16 16 15 13 7 2 2 5 6 12 17 17 16 19 22 23 23 22 20 19 17 15 13 10 8 8 9 8 7 7 6 6 6 5 5 5 5 5 5 4 5 6 4 2 5 5 5 6 7
32 31 30 30 29 29 26 23 22 22 23 23 22 22 22 24 25 23 20 20 19 18 18 19 19 19 19 19 19 20 19 20 22 18 15 15 17 17 19 23 17 6 3 4 4 8 15 18 17 17 20 23 23 23 22 21 19 16 13 10 8 8 8 8 7 7 8 7 7 6 5 5 4 4 5 3 4 8 6 0 3 3 4 6 7
32 31 30 30 29 28 26 24 22 21 21 23 23 22 22 25 26 23 21 20 19 18 17 16 16 17 17 17 17 18 19 18 21 18 11 11 14 17 21 24 20 11 7 5 6 11 14 17 20 20 21 24 25 25 24 22 20 16 12 10 9 7 7 8 7 7 8 8 8 6 5 4 3 3 5 3 4 7 5 2 2 1 3 5 7
31 30 29 29 29 28 26 25 23 21 20 22 23 23 23 24 25 24 22 21 20 19 18 17 16 16 16 16 16 17 19 18 19 19 14 11 12 15 18 18 16 14 12 7 4 9 13 16 20 22 23 25 26 26 25 23 20 15 12 11 10 8 7 8 8 8 8 8 8 7 5 4 3 4 5 5 6 7 6 5 3 0 2 5 7
30 29 28 28 28 28 27 26 25 23 21 21 23 23 23 23 24 25 22 20 19 18 18 17 16 16 15 16 17 17 17 17 17 17 16 15 15 15 16 16 16 15 14 10 4 5 10 13 17 20 21 24 27 27 26 24 20 16 14 12 11 9 9 9 10 10 9 8 7 6 5 4 4 4 5 6 7 7 8 9 6 3 2 5 6
29 28 28 28 28 28 27 26 26 25 23 22 23 24 23 23 24 24 21 18 16 15 14 14 14 13 13 13 15 15 14 15 17 17 17 15 13 14 15 16 18 18 16 12 7 6 7 9 14 19 22 24 27 28 27 25 21 18 16 14 12 10 10 10 11 12 11 10 8 6 5 4 4 4 5 6 8 8 10 11 8 4 2 5 6
29 29 29 28 28 27 27 27 26 26 25 24 25 25 23 23 24 23 19 16 14 13 13 14 13 12 12 12 13 13 13 14 15 15 15 13 11 13 15 15 18 20 18 13 8 5 4 6 13 20 22 25 28 28 28 26 22 20 19 17 14 12 11 11 12 13 13 11 9 7 5 3 4 5 5 6 7 8 11 11 8 5 4 5 6
29 29 28 28 27 27 27 27 27 27 27 26 26 25 23 24 23 20 18 16 14 13 14 14 13 12 11 12 13 13 13 13 13 12 12 13 12 12 13 13 14 15 14 12 7 6 7 9 14 20 23 25 27 27 27 25 21 20 20 18 16 14 13 13 14 14 14 12 9 7 5 3 3 5 5 5 6 8 11 10 7 6 4 5 6
30 29 28 28 27 27 27 27 27 27 27 27 26 24 23 22 20 19 18 16 15 15 14 13 12 11 12 11 11 11 12 12 12 12 12 11 11 10 10 10 10 10 9 9 7 7 8 11 15 21 24 25 25 26 27 25 22 21 20 17 16 15 15 15 15 14 14 12 10 8 5 3 2 4 4 3 4 6 8 8 7 6 5 5 6
29 29 28 28 27 27 27 27 27 28 28 27 24 23 22 20 18 18 17 15 15 15 14 13 11 11 10 10 9 9 10 10 10 10 9 7 6 6 5 6 8 8 7 9 9 8 9 15 18 20 22 24 24 25 28 26 24 22 20 17 16 16 16 16 16 15 14 14 11 9 7 3 2 3 2 2 2 4 7 8 8 7 5 6 6
29 28 28 28 27 27 27 27 27 28 27 25 24 23 21 18 16 16 16 15 15 15 13 11 10 9 8 8 8 8 7 6 6 6 5 5 4 5 5 6 7 7 6 8 10 10 12 18 22 20 21 23 23 24 26 26 25 24 22 19 17 17 17 17 17 16 15 15 13 11 8 4 1 2 2 2 2 4 6 8 8 7 6 6 6
29 28 28 28 28 27 28 28 27 26 26 25 23 21 19 17 16 17 17 17 15 13 10 8 7 8 7 6 5 5 5 4 3 3 3 4 4 3 3 5 7 7 7 8 10 12 15 20 21 20 21 22 21 22 25 25 24 23 23 21 18 18 18 18 18 17 16 16 15 12 9 6 3 3 4 4 3 4 5 6 7 6 6 5 5
29 28 28 28 28 28 29 28 27 26 26 25 23 20 18 18 19 18 18 16 14 10 8 7 7 7 5 4 4 4 3 2 2 2 3 4 5 5 6 7 9 8 8 8 8 11 18 21 18 17 19 20 19 19 21 23 21 21 23 23 20 20 19 19 19 18 18 17 16 13 12 9 7 7 7 5 4 4 5 6 7 7 6 5 5
29 28 28 27 28 28 28 27 27 27 26 25 23 21 20 20 20 19 18 16 13 11 8 7 6 5 4 4 4 4 4 3 3 2 3 4 5 5 6 6 6 6 6 6 5 7 13 16 15 15 16 17 17 17 20 23 23 23 24 24 21 20 19 19 20 19 17 15 15 15 14 11 9 8 8 7 6 5 6 8 8 8 7 7 6
29 28 27 27 28 28 27 26 26 26 24 23 23 21 20 21 20 19 18 15 13 11 10 8 7 4 4 5 5 5 5 5 3 3 5 6 5 5 5 5 5 5 6 6 5 5 8 12 14 15 14 15 18 20 22 24 25 24 24 24 22 19 17 16 16 16 16 15 15 15 14 13 11 9 8 7 7 7 8 8 9 8 8 8 7
29 27 25 26 26 25 26 26 26 24 22 21 21 19 19 20 19 18 16 13 12 12 10 9 8 6 6 7 7 6 6 6 6 6 8 8 6 5 5 4 4 4 5 6 6 6 7 9 11 13 14 16 19 21 23 24 25 24 25 26 23 20 19 15 10 11 14 15 15 14 14 13 12 11 10 8 8 10 11 10 9 8 9 9 7
27 26 25 25 23 24 26 26 25 23 21 20 19 18 18 18 16 15 14 13 12 12 10 9 9 8 8 9 9 8 8 8 9 10 10 9 6 5 4 3 3 4 4 5 6 6 8 9 11 12 13 17 21 21 22 24 25 25 25 24 22 21 20 16 11 10 12 13 13 12 9 8 9 8 7 6 8 10 11 12 12 11 10 9 7
26 25 25 24 24 26 27 25 23 21 20 18 17 17 17 17 16 15 15 14 12 11 10 10 10 10 11 11 11 10 10 10 11 12 11 10 8 6 5 4 4 5 4 4 4 4 4 5 8 9 10 14 18 20 19 21 24 24 22 20 20 20 17 14 13 13 13 12 13 10 6 6 6 6 3 2 0 2 4 7 10 11 12 11 8
27 26 26 26 26 27 26 24 23 21 19 17 16 16 16 15 15 15 15 14 12 11 10 11 11 12 12 12 12 13 13 12 12 11 11 10 9 8 6 6 5 4 4 3 3 2 2 1 3 6 7 7 10 14 14 16 20 22 21 20 19 17 15 14 14 14 14 14 14 12 11 10 10 9 7 6 5 4 3 1 4 8 11 11 9
28 26 25 26 26 25 25 24 23 21 20 18 15 15 15 14 14 14 14 15 14 12 12 12 12 12 12 12 13 15 15 13 12 10 10 11 10 9 8 6 5 4 3 3 3 3 3 3 3 5 5 4 2 6 9 11 15 19 20 19 18 17 17 17 15 13 14 15 15 13 10 9 10 11 10 9 8 8 6 4 1 3 6 10 11
28 25 25 25 24 24 25 25 24 23 21 18 16 15 14 14 15 15 16 17 16 14 13 13 12 11 11 12 14 15 15 14 12 10 10 10 10 10 9 8 7 6 7 7 7 7 7 7 8 9 9 8 7 5 5 8 13 16 17 17 17 19 20 18 14 13 13 12 12 13 13 11 13 16 15 13 12 13 12 10 8 6 6 10 12
27 25 25 25 23 24 26 25 25 24 21 18 17 15 15 17 18 18 18 19 18 15 14 14 13 11 10 12 14 15 14 13 12 11 11 10 11 11 11 10 10 9 10 10 10 10 10 9 9 9 8 8 7 7 7 7 10 13 15 19 20 21 21 17 12 12 14 12 12 15 15 13 14 17 18 16 15 15 13 12 11 10 9 9 8
26 24 25 24 22 23 25 24 23 22 21 19 17 16 17 20 21 21 21 20 19 17 17 16 14 12 11 12 13 13 13 13 13 12 12 12 12 12 12 12 11 11 12 11 10 10 9 9 8 7 6 5 4 4 4 5 8 10 11 16 22 22 21 19 15 13 13 12 13 13 12 11 12 15 17 17 17 17 14 12 11 10 9 8 8
24 24 25 22 21 23 23 21 21 21 21 19 17 16 20 23 23 23 22 22 21 20 20 19 17 14 13 13 12 11 12 14 14 13 13 13 13 12 12 13 13 12 12 11 10 10 10 9 8 7 7 6 5 5 6 7 10 10 9 13 20 20 19 21 20 15 10 8 9 10 10 10 9 9 10 11 12 15 16 16 16 15 15 14 14
Wind_Direction
185 188 189 190 192 193 195 200 203 207 208 210 211 212 215 214 216 216 213 218 227 238 256 275 286 295 301 296 267 226 211 203 198 194 192 193 190 188 183 176 179 179 180 178 168 161 152 136 118 100 102 109 113 110 94 68 55 47 39 36 40 50 61 69 77 75 72 78 82 85 84 84 78 74 69 62 58 54 50 45 41 47 52 57 56
185 189 191 192 193 194 193 194 197 204 208 209 208 207 207 205 205 204 203 215 228 239 264 283 295 303 302 283 233 207 203 194 192 192 191 193 191 187 186 180 174 177 182 176 165 164 154 135 116 109 112 111 117 111 91 49 36 31 31 43 57 67 76 72 69 69 66 64 67 74 76 76 74 70 66 65 64 57 49 41 37 42 43 46 44
185 190 193 194 196 196 194 195 197 200 207 205 202 203 200 201 205 204 209 225 239 253 277 288 302 311 295 246 211 200 196 187 188 193 190 189 191 191 186 173 175 180 183 175 167 166 152 133 121 118 115 113 117 105 85 39 22 20 32 52 73 71 65 49 46 54 57 55 53 55 58 65 69 61 63 74 79 75 62 48 38 35 24 20 10
188 191 194 196 198 198 197 199 199 198 201 199 202 209 205 205 212 220 229 242 256 269 285 286 300 313 270 217 202 193 191 185 186 190 188 191 192 193 188 175 176 182 184 178 170 163 148 133 128 123 119 122 120 101 77 44 38 31 36 57 61 40 52 49 47 50 49 50 45 41 50 46 24 28 34 34 52 59 49 33 13 5 357 352 345
191 194 196 198 200 200 201 202 201 201 202 203 212 220 219 217 220 232 239 245 258 270 279 278 296 308 232 203 192 185 187 184 184 189 193 196 194 193 189 177 177 182 183 176 168 159 149 140 132 127 129 134 127 113 72 63 71 46 42 63 50 42 55 44 41 47 50 52 48 46 45 7 358 20 38 26 22 5 359 7 7 14 15 10 9
195 198 200 201 203 203 204 204 204 208 209 213 221 226 229 228 228 239 241 243 252 262 269 272 297 298 208 192 181 177 180 183 187 193 197 194 192 193 188 180 180 182 179 173 169 163 156 146 139 137 136 137 134 121 79 93 100 51 66 81 47 50 54 40 40 43 45 50 54 43 21 6 11 43 62 38 18 2 4 24 32 44 39 24 21
197 201 202 203 205 206 207 206 209 214 215 218 222 226 230 229 232 238 238 240 245 253 262 269 294 274 195 185 176 178 181 189 195 193 195 193 192 190 185 183 184 183 180 177 175 169 162 149 147 146 137 136 134 108 90 112 121 89 114 97 55 65 61 56 49 36 34 42 51 49 52 67 80 81 67 45 34 33 46 55 56 60 56 43 34
199 202 203 203 205 208 208 208 212 216 218 222 222 220 221 222 230 233 232 236 241 250 256 263 284 248 193 188 181 184 187 194 199 191 188 190 192 189 184 184 186 187 186 184 179 170 164 157 153 147 138 135 131 123 116 123 137 153 153 99 80 81 66 56 40 31 37 52 66 71 80 88 89 85 73 66 64 62 62 63 64 64 60 57 52
200 204 206 206 208 209 208 208 213 217 218 222 221 219 222 227 234 238 238 239 242 251 253 262 278 255 202 199 191 188 189 193 195 186 184 190 193 190 185 185 187 190 190 188 184 176 167 162 157 151 142 133 133 135 121 129 159 170 149 100 88 76 61 49 42 50 60 72 79 77 79 80 80 78 72 70 69 66 64 64 65 64 62 62 55
201 205 208 210 211 210 208 208 215 218 215 217 219 220 227 233 237 242 242 243 243 246 259 267 275 278 223 206 199 194 193 195 191 179 182 194 198 194 187 188 191 192 192 191 189 183 173 166 164 161 148 133 133 124 117 143 172 156 118 92 89 79 65 52 59 74 79 84 83 78 77 75 74 69 64 64 65 66 65 60 55 53 58 60 54
202 205 208 207 209 210 209 211 217 219 217 218 220 222 228 232 237 243 244 246 246 246 265 273 279 288 231 202 197 195 192 193 187 178 187 200 202 196 190 192 194 193 193 194 192 188 181 175 174 169 153 135 126 121 129 159 170 139 105 100 97 88 76 68 71 76 78 84 82 78 80 78 74 69 64 60 61 67 65 59 53 52 59 62 59
203 206 207 204 205 209 211 215 222 224 221 220 221 223 228 233 240 245 245 249 247 247 262 270 270 265 202 188 187 187 188 193 188 178 187 201 203 197 194 194 195 193 194 195 192 189 186 182 180 174 159 138 125 126 138 157 162 138 120 117 105 94 88 81 81 78 74 76 77 75 75 75 75 72 69 64 62 68 68 62 58 56 61 62 60
205 206 207 207 207 207 209 215 219 219 219 220 222 226 230 236 242 244 248 252 247 246 255 254 222 168 163 177 187 188 190 200 197 179 186 199 202 200 199 197 194 194 195 194 189 187 188 186 184 178 164 146 132 134 142 149 153 144 133 125 105 103 100 90 87 82 75 76 79 77 74 73 73 70 69 67 64 65 69 67 60 55 56 59 58
206 207 207 209 210 209 210 213 210 209 211 216 221 225 228 231 235 237 244 251 249 248 247 235 197 174 169 170 188 199 201 200 185 173 189 200 204 203 203 202 198 195 195 192 186 186 190 188 186 181 169 158 144 138 144 151 152 148 144 127 104 115 112 105 100 86 78 82 82 78 76 74 73 72 67 64 63 62 62 64 61 56 55 58 58
208 208 209 211 212 212 213 212 210 208 209 213 220 226 228 228 230 235 241 248 254 252 242 234 215 188 174 173 209 210 225 226 201 178 194 202 205 205 205 205 201 197 196 193 188 188 191 192 191 188 178 167 155 145 145 154 156 155 158 139 111 122 119 115 109 92 83 87 86 79 76 76 76 74 70 67 67 64 61 61 60 59 59 59 56
209 209 211 214 214 213 214 213 212 213 212 216 224 231 234 233 232 237 242 246 247 242 237 238 231 208 182 125 150 153 266 247 211 182 197 204 207 206 205 205 202 199 198 197 195 193 194 196 196 194 185 172 163 157 151 155 159 161 167 151 122 124 119 115 111 100 90 91 91 84 77 78 77 73 71 71 69 68 65 63 63 63 64 63 57
210 209 211 216 217 216 216 215 216 217 218 220 225 234 239 237 236 238 240 243 241 233 230 236 241 233 216 195 112 149 244 219 192 186 195 202 209 208 206 205 202 200 200 200 200 198 198 200 198 194 188 179 172 167 162 162 164 167 166 150 136 133 127 120 116 107 98 96 95 89 82 79 78 75 71 70 69 71 69 66 67 68 68 65 60
208 208 210 214 218 219 219 219 220 221 222 223 225 235 241 238 236 237 239 244 243 235 232 236 244 244 232 228 234 238 220 166 156 197 202 205 212 211 209 205 203 204 202 201 202 202 203 204 201 197 191 185 180 175 171 169 169 172 166 157 154 147 142 136 123 114 107 102 96 92 92 83 79 77 72 72 70 71 74 70 69 70 69 67 63
208 208 209 211 214 219 222 223 225 225 224 223 226 237 239 236 237 240 239 244 243 238 241 244 243 247 242 235 236 237 223 197 182 176 186 216 215 211 211 206 203 209 210 205 204 205 208 210 206 202 197 192 187 184 177 169 170 174 169 165 164 156 150 145 129 120 114 109 103 100 97 88 84 80 75 74 71 70 74 74 73 71 70 69 66
209 209 208 210 214 218 221 223 224 222 219 220 231 237 234 232 236 239 239 243 245 243 245 245 241 244 238 224 226 227 215 210 210 197 168 182 217 215 220 213 206 216 220 215 211 208 207 209 207 204 200 196 192 191 183 176 175 175 175 173 170 164 157 151 142 132 121 115 114 109 100 94 89 84 79 77 74 73 71 73 76 74 72 70 69
209 209 207 209 214 216 217 218 218 214 213 220 236 236 230 231 235 237 239 241 246 248 246 244 241 240 229 216 220 222 216 215 218 211 157 103 227 242 226 215 211 220 224 222 219 210 203 203 203 203 201 196 194 192 186 186 183 176 179 186 184 177 170 167 163 155 146 133 122 113 103 100 97 91 86 79 75 75 71 70 73 73 74 72 70
206 207 207 207 213 217 216 216 214 212 213 222 236 235 231 233 236 240 243 243 247 250 248 248 247 243 237 228 221 219 222 227 227 223 157 117 212 215 194 200 201 213 219 216 209 202 199 200 200 202 200 196 193 192 190 193 187 179 180 187 193 193 189 186 179 172 170 162 144 131 116 111 112 103 93 84 76 74 72 70 68 69 73 74 72
203 205 206 207 211 218 219 218 217 216 217 222 232 238 236 236 238 241 243 246 250 251 250 252 253 249 245 239 233 230 230 233 233 228 212 197 208 180 190 207 209 213 214 206 201 198 199 204 206 204 200 196 195 194 195 196 187 179 178 179 189 200 203 199 192 190 190 182 167 161 149 132 127 117 103 91 78 72 72 72 70 67 70 75 77
201 202 204 205 209 216 219 220 220 219 219 222 229 239 241 239 241 240 241 246 249 249 249 252 254 250 247 244 242 243 241 241 241 234 224 214 205 175 192 203 211 222 220 207 204 204 203 208 214 211 202 198 199 199 198 196 191 184 177 174 179 193 204 204 201 202 207 205 191 176 169 161 151 139 121 102 87 72 67 73 75 72 72 77 81
198 200 202 203 206 214 217 218 221 220 221 223 227 236 242 242 242 242 242 245 249 251 249 251 252 250 250 247 245 246 247 248 249 243 232 204 192 197 196 194 193 206 213 213 209 209 206 208 215 214 208 204 202 203 202 198 195 189 179 171 169 176 192 200 202 204 214 223 220 208 201 197 187 168 144 120 110 75 55 64 74 77 79 82 87
197 200 201 202 205 213 216 215 219 222 224 225 226 232 241 242 243 243 243 245 251 255 252 251 250 249 252 251 250 251 249 249 248 243 238 216 206 205 180 186 196 175 191 206 204 204 203 205 214 215 211 210 206 204 204 203 199 191 180 169 161 162 168 170 168 173 202 224 224 216 208 202 190 175 161 143 137 92 49 57 66 75 83 87 95
199 201 203 204 207 214 216 215 220 225 227 226 225 230 237 241 240 241 243 245 249 252 252 253 253 254 256 256 255 256 253 251 247 238 237 234 222 213 192 168 217 184 187 200 202 206 200 196 210 216 210 209 209 205 205 205 201 189 179 170 159 157 153 145 138 140 167 197 197 177 151 123 133 161 163 157 163 154 84 56 50 65 83 88 100
202 204 206 207 210 214 216 217 222 226 227 226 225 227 233 238 240 239 240 242 242 244 248 251 254 257 259 258 257 259 258 256 251 237 231 238 239 233 219 204 201 193 198 205 209 218 208 193 199 212 211 209 208 206 205 203 198 188 180 174 164 156 153 146 138 140 149 158 152 138 126 113 110 141 152 155 183 178 150 58 19 48 85 90 100
206 208 209 210 212 214 215 217 221 224 226 226 225 226 230 237 241 238 235 237 239 242 247 250 252 255 255 256 258 262 264 265 262 247 222 228 244 243 227 216 208 182 161 204 214 221 213 201 195 201 207 210 208 204 204 202 196 189 182 177 170 159 159 161 155 150 152 150 143 133 132 130 118 135 143 140 188 183 168 212 341 38 92 97 101
211 212 213 213 213 215 215 215 217 220 224 224 224 226 230 238 241 237 232 236 240 244 249 252 255 255 255 256 258 264 269 271 273 266 224 202 223 226 221 220 215 203 189 188 212 220 211 202 204 205 205 207 207 205 203 200 196 192 187 182 176 166 164 174 173 164 161 156 151 146 148 153 151 157 159 147 171 182 192 260 300 51 101 106 103
213 214 214 215 215 215 215 214 215 218 221 223 224 226 232 238 240 236 233 238 242 246 251 256 259 258 258 261 263 268 274 275 277 275 256 235 232 223 218 220 222 221 209 181 191 227 213 202 206 211 210 206 205 204 201 197 195 195 194 188 179 174 178 184 183 180 179 173 166 163 162 170 186 196 198 198 194 200 214 222 232 313 122 124 109
214 216 217 218 217 215 215 215 216 218 219 222 224 226 230 236 240 239 236 237 243 249 254 259 263 263 263 267 271 273 276 275 274 273 266 260 256 246 236 232 230 228 218 198 187 233 228 218 211 212 212 204 201 202 199 194 194 197 199 193 181 181 192 194 190 192 194 190 183 180 180 185 200 213 214 209 209 212 209 208 225 270 166 141 120
217 219 219 219 217 215 215 216 217 219 220 222 222 224 227 231 236 240 239 239 243 248 252 257 263 268 269 273 277 278 277 275 271 271 271 266 255 241 237 234 227 225 222 215 216 232 232 226 216 210 207 201 198 200 198 192 191 196 199 195 190 195 203 200 198 200 202 203 201 197 197 204 223 238 236 225 219 216 212 217 232 254 200 157 133
217 218 218 217 216 215 215 217 219 220 220 221 221 221 222 223 227 233 237 239 241 244 250 258 263 270 274 279 285 288 288 282 274 271 273 271 253 228 221 219 219 222 220 212 211 210 179 183 198 197 197 198 196 196 197 195 192 194 196 195 196 204 210 207 205 204 206 210 211 209 211 229 254 258 252 244 235 223 220 227 234 233 209 171 147
216 216 216 215 215 216 216 217 219 218 217 219 221 220 218 217 219 226 233 237 240 246 253 259 262 269 276 283 290 294 296 294 286 280 277 271 261 242 224 211 207 210 208 200 185 160 150 158 179 187 189 194 196 196 197 198 197 196 195 195 197 204 209 211 212 209 209 212 212 210 215 238 270 271 265 259 249 234 229 231 225 215 201 173 157
216 215 215 216 216 215 215 215 215 214 214 218 220 217 213 213 217 224 231 237 245 252 257 260 263 270 276 281 287 290 289 289 286 282 279 269 254 238 220 205 203 203 203 203 191 173 166 160 174 190 190 190 196 196 194 196 200 199 198 197 199 205 208 210 213 213 212 213 211 209 211 217 269 278 273 264 251 233 224 215 203 200 192 171 163
214 214 215 216 215 213 213 213 211 211 213 214 212 208 208 213 220 227 230 235 243 249 254 259 260 263 270 275 281 285 282 280 277 273 266 250 228 221 220 217 220 227 230 223 217 213 195 176 178 190 190 187 192 193 193 196 198 197 200 203 205 209 209 210 215 217 215 214 210 207 205 196 251 277 268 239 221 208 201 195 193 197 186 166 163
212 212 213 211 210 211 212 212 212 211 211 209 206 205 209 215 220 223 224 227 236 242 245 251 256 257 264 272 276 281 285 285 278 263 243 228 237 256 260 240 223 220 222 214 214 219 206 188 182 182 183 184 186 190 196 200 198 195 197 203 212 214 211 211 214 215 216 213 205 202 198 179 182 240 184 153 181 193 193 193 197 199 183 165 164
209 209 209 208 209 211 210 210 211 209 205 203 205 209 212 215 216 218 221 225 229 230 233 238 245 248 255 266 273 277 287 295 280 242 226 230 240 243 215 190 179 171 165 174 191 199 189 182 180 180 181 184 186 192 199 201 199 197 195 196 205 212 212 214 214 212 209 204 198 197 192 175 166 184 173 162 180 194 198 200 201 198 188 178 177
206 206 206 205 205 207 206 206 206 204 202 202 206 209 212 216 218 218 218 218 216 212 214 223 226 226 230 241 252 254 255 256 235 231 235 222 198 159 144 157 162 155 147 149 160 172 173 174 178 180 181 186 189 191 193 192 191 195 198 197 199 205 209 213 213 208 201 196 195 194 191 186 187 192 188 181 181 190 197 199 197 195 195 192 187
204 204 204 202 201 202 203 203 203 202 202 204 206 207 210 214 214 212 208 205 206 205 205 208 206 207 215 219 227 232 222 205 204 213 205 194 182 161 146 151 160 155 146 145 139 150 164 170 175 177 180 188 191 184 182 188 194 198 201 201 203 204 205 207 207 205 201 198 198 198 197 198 200 205 206 199 194 199 202 199 196 195 193 186 182
204 202 201 201 201 203 204 202 199 198 200 206 209 208 208 207 204 202 199 196 201 203 200 197 190 197 229 220 214 222 214 193 178 171 170 173 173 165 149 135 137 137 138 147 147 149 160 164 172 180 180 184 191 192 190 195 202 202 199 200 202 196 190 193 199 202 204 206 206 206 206 208 211 218 225 222 218 220 218 209 201 199 195 188 188
205 203 201 200 202 206 205 198 193 193 198 205 205 201 200 201 199 198 194 192 195 196 195 194 189 196 219 213 202 204 200 180 162 160 165 169 170 164 154 141 129 124 131 142 150 164 175 174 178 189 192 189 191 196 198 198 200 199 196 196 194 183 177 176 178 194 203 207 212 213 212 215 222 231 240 247 249 247 242 231 216 209 202 195 198
205 204 201 200 200 202 199 191 186 187 190 191 192 192 195 196 198 200 196 190 187 188 191 193 188 189 196 193 187 184 180 171 162 160 161 164 168 164 156 151 135 123 126 138 148 165 179 186 190 194 200 198 192 191 194 194 193 192 191 192 189 182 179 174 165 174 184 190 203 208 209 216 222 228 243 261 263 256 250 240 231 224 215 205 203
203 203 201 196 191 190 189 183 179 181 181 181 186 192 194 195 198 199 193 187 185 187 193 191 185 185 185 179 172 164 164 164 163 164 166 166 166 160 148 143 139 133 126 124 136 153 168 191 201 198 199 200 196 195 196 194 192 189 184 183 184 183 180 170 161 161 163 175 187 175 134 125 138 139 131 104 319 250 230 231 233 232 227 217 203
201 202 200 193 186 184 183 180 177 179 180 181 187 193 194 194 197 195 189 185 185 187 192 190 186 183 180 176 171 164 162 166 167 169 172 168 161 155 147 137 133 136 138 131 133 142 148 187 208 202 197 200 208 212 211 206 201 194 184 178 177 174 165 153 150 154 157 166 167 141 114 115 120 116 114 104 88 86 98 155 233 237 233 220 202
201 200 194 190 188 185 181 178 178 178 180 181 185 192 194 193 195 195 188 181 178 179 186 189 186 179 176 178 179 173 169 167 168 172 175 170 162 156 148 138 129 121 119 120 112 109 120 129 132 137 133 129 185 216 217 212 203 195 187 179 171 161 146 135 136 145 151 159 160 141 117 115 118 112 107 100 94 93 91 94 150 230 219 199 195
203 200 190 188 190 185 179 177 178 177 176 179 184 189 193 194 194 193 186 175 170 175 182 185 181 175 176 180 180 177 172 168 168 175 181 176 167 159 148 134 127 119 112 112 113 115 120 123 120 115 108 104 104 115 150 176 177 175 171 161 157 153 140 125 117 124 133 147 158 145 125 116 116 109 98 91 91 91 89 96 105 99 120 160 183
197 191 187 188 188 184 179 176 175 175 175 178 184 188 193 195 193 189 180 170 167 175 182 181 176 169 167 172 176 178 177 173 171 178 186 184 171 161 150 138 130 123 118 119 123 125 127 126 124 119 114 113 111 108 117 140 158 168 163 153 155 156 143 125 111 114 121 128 140 138 124 117 119 110 95 86 88 88 85 88 95 98 112 140 162
186 175 179 182 179 179 178 175 175 179 178 179 185 191 195 196 193 185 174 167 169 178 183 181 176 164 156 160 171 180 181 178 177 181 189 187 174 163 157 149 141 134 135 140 140 136 135 134 133 133 131 129 129 126 129 143 162 182 183 168 165 160 144 131 124 119 117 123 135 136 122 118 129 123 104 89 80 79 86 89 86 94 113 122 120
176 167 175 176 170 173 175 174 180 183 181 180 186 192 194 196 194 183 172 169 174 181 185 184 178 170 164 163 167 175 176 176 178 183 189 188 178 172 169 162 154 150 153 158 157 151 147 143 140 140 138 135 138 147 158 169 174 187 203 186 173 163 145 137 134 127 117 124 141 143 130 123 133 138 128 109 82 73 84 96 96 98 109 120 123